GW3945 Weather Reports


Display with metric or nautical units.
time (UTC)temp
F
wind
direction
speed
MPH
gust
MPH
rain 1hr
in
rain 24hr
in
rain mn
in
humidity
%
barometer
mb
20260506212454 57 180 0.0 0.0 0.00 0.16 0.16 90 1011.4
20260506211949 57 177 0.0 0.0 0.00 0.16 0.16 93 1011.2
20260506211445 57 176 0.0 0.0 0.00 0.16 0.16 94 1011.0
20260506210943 56 180 0.0 0.0 0.00 0.16 0.16 93 1011.2
20260506210439 57 171 0.0 0.0 0.00 0.16 0.16 94 1010.9
20260506205936 57 195 0.0 0.0 0.00 0.16 0.16 94 1011.5
20260506205432 57 175 0.0 0.0 0.00 0.16 0.16 94 1011.4
20260506204928 57 175 0.0 0.0 0.00 0.16 0.16 91 1012.0
20260506204427 56 193 0.0 0.0 0.00 0.16 0.16 91 1011.9
20260506203924 57 258 0.0 0.0 0.00 0.16 0.16 92 1011.7
20260506203420 56 175 0.0 0.0 0.00 0.16 0.16 93 1011.8
20260506202918 56 189 0.0 0.0 0.00 0.16 0.16 93 1011.8
20260506202415 57 179 0.0 0.0 0.00 0.16 0.16 94 1011.7
20260506201911 56 177 0.0 0.0 0.00 0.16 0.16 94 1011.7
20260506201409 57 180 0.0 0.0 0.00 0.16 0.16 93 1011.6
20260506200905 57 176 0.0 0.0 0.00 0.16 0.16 92 1011.6
20260506200401 57 181 0.0 0.0 0.00 0.16 0.16 92 1011.7
20260506195858 56 179 0.0 0.0 0.00 0.16 0.16 91 1011.9
20260506195355 56 171 0.0 0.0 0.00 0.16 0.16 94 1011.4
20260506194851 56 171 0.0 0.0 0.00 0.16 0.16 92 1011.4
20260506194348 56 172 0.0 0.0 0.00 0.16 0.16 90 1011.4
20260506193846 56 192 0.0 0.0 0.00 0.16 0.16 90 1011.4
20260506193343 56 205 2.0 2.0 0.00 0.16 0.16 89 1011.5
20260506192839 56 298 0.0 1.0 0.00 0.16 0.16 89 1011.9
20260506192336 57 270 1.0 1.0 0.00 0.16 0.16 90 1011.8
20260506191833 57 209 2.0 3.0 0.00 0.16 0.16 91 1011.4
20260506191329 56 171 0.0 0.0 0.00 0.16 0.16 91 1011.5
20260506190826 56 271 0.0 0.0 0.00 0.16 0.16 94 1011.4
20260506190322 55 218 1.0 1.0 0.00 0.16 0.16 96 1011.6
20260506185820 55 171 0.0 0.0 0.00 0.16 0.16 96 1011.9
20260506185316 54 172 0.0 0.0 0.00 0.16 0.16 96 1012.1
20260506184814 55 228 0.0 0.0 0.00 0.16 0.16 95 1012.5
20260506184311 54 181 0.0 0.0 0.00 0.16 0.16 95 1012.6
20260506183808 54 184 0.0 0.0 0.00 0.16 0.16 95 1012.7
20260506183303 54 181 0.0 0.0 0.00 0.16 0.16 95 1012.4
20260506182800 54 182 0.0 0.0 0.00 0.16 0.16 95 1012.6
20260506182257 54 181 0.0 0.0 0.00 0.16 0.16 95 1012.4
20260506181755 54 191 0.0 0.0 0.00 0.16 0.16 95 1012.3
20260506181253 54 218 0.0 1.0 0.00 0.16 0.16 95 1012.2
20260506180750 54 176 0.0 0.0 0.00 0.16 0.16 96 1012.2
20260506180245 54 209 0.0 0.0 0.00 0.16 0.16 96 1011.8
20260506175742 54 182 0.0 0.0 0.00 0.16 0.16 96 1012.0
20260506175239 53 181 0.0 0.0 0.00 0.16 0.16 96 1011.7
20260506174737 53 181 0.0 0.0 0.00 0.16 0.16 97 1011.6
20260506174233 53 290 1.0 2.0 0.00 0.16 0.16 97 1011.8
20260506173732 53 170 0.0 0.0 0.00 0.16 0.16 97 1011.4
20260506173228 53 174 0.0 0.0 0.00 0.16 0.16 97 1011.1
20260506172725 53 210 0.0 0.0 0.00 0.16 0.16 97 1011.6
20260506172221 53 257 0.0 1.0 0.00 0.16 0.16 98 1011.5
20260506171719 53 180 0.0 0.0 0.00 0.16 0.16 98 1011.4
20260506171216 53 181 0.0 0.0 0.00 0.16 0.16 98 1011.3
20260506170713 52 173 0.0 0.0 0.00 0.16 0.16 97 1011.2
20260506170210 52 250 1.0 1.0 0.00 0.16 0.16 97 1011.5
20260506165709 52 194 0.0 1.0 0.00 0.16 0.16 97 1012.0
20260506165205 52 172 0.0 0.0 0.00 0.16 0.16 97 1012.0
20260506164702 52 177 0.0 0.0 0.00 0.16 0.16 98 1011.9
20260506164159 51 174 0.0 0.0 0.00 0.16 0.16 98 1011.9
20260506163655 52 181 0.0 0.0 0.00 0.16 0.16 98 1011.9
20260506163151 52 173 0.0 0.0 0.00 0.16 0.16 98 1011.9
20260506162647 51 181 0.0 0.0 0.00 0.16 0.16 98 1012.0
20260506162144 52 173 0.0 0.0 0.00 0.16 0.16 98 1011.7
20260506161642 51 195 1.0 1.0 0.00 0.16 0.16 98 1011.9
20260506161138 51 203 1.0 1.0 0.00 0.16 0.16 98 1011.4
20260506160636 51 181 0.0 0.0 0.00 0.16 0.16 98 1011.8
20260506160133 51 221 0.0 0.0 0.00 0.16 0.16 98 1011.6
20260506155632 51 184 0.0 1.0 0.00 0.16 0.16 98 1011.7
20260506155128 51 199 0.0 0.0 0.00 0.16 0.16 98 1011.7
20260506153230 52 177 0.0 0.0 0.00 0.16 0.16 98 1011.9
20260506152727 52 173 0.0 0.0 0.00 0.16 0.16 99 1011.6
20260506152224 52 172 0.0 0.0 0.00 0.16 0.16 99 1011.4
20260506151724 51 212 1.0 1.0 0.00 0.16 0.16 99 1011.7
20260506151220 51 177 0.0 0.0 0.00 0.16 0.16 99 1011.3
20260506150716 51 173 0.0 0.0 0.00 0.16 0.16 99 1011.0
20260506150213 51 233 2.0 3.0 0.00 0.16 0.16 99 1011.5
20260506145710 51 290 1.0 1.0 0.00 0.16 0.16 99 1011.4
20260506145207 51 210 0.0 0.0 0.00 0.16 0.16 99 1011.4
20260506144704 51 183 0.0 0.0 0.00 0.16 0.16 99 1011.1
20260506144201 51 225 0.0 0.0 0.00 0.16 0.16 99 1010.8
20260506143659 51 174 0.0 0.0 0.00 0.16 0.16 99 1010.8
20260506143156 52 258 1.0 1.0 0.00 0.16 0.16 99 1010.8
20260506142655 51 178 0.0 0.0 0.00 0.16 0.16 99 1010.4
20260506142152 51 172 0.0 1.0 0.05 0.16 0.16 99 1010.6
20260506141650 51 183 1.0 1.0 0.05 0.16 0.16 99 1010.7
20260506141148 51 239 0.0 1.0 0.00 0.15 0.15 99 1010.2
20260506140645 51 195 0.0 0.0 0.00 0.15 0.15 99 1010.0
20260506140142 51 164 0.0 0.0 0.00 0.15 0.15 99 1010.1
20260506135639 51 226 2.0 3.0 0.00 0.15 0.15 99 1009.7
20260506135135 51 156 0.0 0.0 0.00 0.15 0.15 99 1009.8
20260506134632 51 199 0.0 0.0 0.00 0.15 0.15 99 1009.8
20260506134127 51 273 1.0 2.0 0.00 0.15 0.15 99 1009.7
20260506133625 51 241 1.0 2.0 0.00 0.15 0.15 99 1009.7
20260506133122 51 185 1.0 1.0 0.07 0.15 0.15 99 1009.7
20260506132619 51 177 0.0 0.0 0.07 0.15 0.15 99 1009.7
20260506132116 51 182 0.0 0.0 0.00 0.14 0.14 99 1009.4
20260506131614 51 186 0.0 0.0 0.00 0.14 0.14 99 1009.5
20260506131110 51 223 0.0 0.0 0.00 0.14 0.14 99 1009.8
20260506130607 51 190 0.0 0.0 0.05 0.14 0.14 99 1009.9
20260506130105 51 173 0.0 0.0 0.05 0.14 0.14 99 1010.1
20260506125603 51 183 0.0 0.0 0.00 0.13 0.13 99 1010.4
20260506125100 51 175 0.0 0.0 0.07 0.13 0.13 99 1010.2
20260506124557 51 184 0.0 0.0 0.07 0.13 0.13 99 1010.2
20260506124055 51 186 0.0 0.0 0.00 0.12 0.12 99 1009.9
20260506123552 51 220 0.0 0.0 0.00 0.12 0.12 99 1009.9
20260506123051 51 175 0.0 0.0 0.00 0.12 0.12 99 1009.8
20260506122547 51 179 0.0 0.0 0.00 0.12 0.12 99 1009.9
20260506122046 51 182 0.0 0.0 0.00 0.12 0.12 99 1009.6
20260506121542 51 169 0.0 0.0 0.00 0.12 0.12 99 1009.4
20260506121038 51 306 0.0 1.0 0.00 0.12 0.12 99 1009.6
20260506120537 51 171 0.0 0.0 0.00 0.12 0.12 99 1009.4
20260506120034 51 185 0.0 0.0 0.00 0.12 0.12 99 1009.5
20260506115532 51 178 0.0 0.0 0.00 0.12 0.12 99 1009.4
20260506115030 51 176 0.0 0.0 0.05 0.12 0.12 99 1009.0
20260506114527 51 169 0.0 0.0 0.05 0.12 0.12 98 1009.0
20260506114026 51 225 0.0 0.0 0.00 0.11 0.11 98 1009.0
20260506113523 51 185 0.0 1.0 0.00 0.11 0.11 98 1008.9
20260506113020 52 259 2.0 2.0 0.07 0.11 0.11 98 1008.5
20260506112516 52 242 0.0 1.0 0.07 0.11 0.11 98 1008.3
20260506112014 52 177 0.0 1.0 0.07 0.11 0.11 98 1008.4
20260506111512 52 184 0.0 0.0 0.07 0.10 0.10 98 1008.1
20260506111009 52 179 1.0 1.0 0.12 0.10 0.10 98 1008.5
20260506110507 52 192 0.0 0.0 0.00 0.08 0.08 98 1008.2
20260506110004 52 199 0.0 0.0 0.00 0.08 0.08 98 1007.8
20260506105459 52 190 0.0 0.0 0.00 0.08 0.08 98 1007.7
20260506104957 52 172 0.0 0.0 0.00 0.08 0.08 98 1007.5
20260506104455 52 171 0.0 0.0 0.00 0.08 0.08 98 1008.0
20260506103953 52 223 0.0 0.0 0.00 0.08 0.08 98 1007.9
20260506103449 52 178 0.0 0.0 0.00 0.08 0.08 98 1007.7
20260506102946 52 178 0.0 0.0 0.00 0.08 0.08 98 1008.0
20260506102444 52 182 0.0 0.0 0.00 0.08 0.08 98 1008.2
20260506101941 52 174 0.0 0.0 0.00 0.08 0.08 98 1007.9
20260506101438 52 177 0.0 0.0 0.00 0.08 0.08 98 1007.6
20260506100935 52 178 0.0 0.0 0.07 0.08 0.08 98 1007.8
20260506100433 52 169 0.0 0.0 0.07 0.08 0.08 98 1007.6
20260506095931 52 171 0.0 0.0 0.00 0.07 0.07 98 1007.5
20260506095429 52 215 0.0 0.0 0.00 0.07 0.07 98 1007.4
20260506094925 52 175 0.0 1.0 0.00 0.07 0.07 98 1007.4
20260506094424 52 189 0.0 0.0 0.00 0.07 0.07 98 1007.6
20260506093921 52 176 0.0 0.0 0.00 0.07 0.07 98 1007.4
20260506093419 53 176 0.0 0.0 0.05 0.07 0.07 97 1007.2
20260506092917 53 160 0.0 0.0 0.05 0.07 0.07 98 1007.5
20260506092415 53 196 0.0 1.0 0.00 0.06 0.06 97 1007.5
20260506091911 53 172 0.0 0.0 0.07 0.06 0.06 97 1007.7
20260506091409 53 183 0.0 0.0 0.07 0.06 0.06 97 1007.6
20260506090906 53 249 0.0 0.0 0.05 0.05 0.05 97 1006.8
20260506090403 53 163 0.0 0.0 0.12 0.05 0.05 97 1007.4
20260506085900 54 260 2.0 2.0 0.07 0.04 0.04 97 1007.6
20260506085356 54 159 0.0 0.0 0.00 0.03 0.03 97 1007.5
20260506084853 55 267 1.0 2.0 0.05 0.03 0.03 97 1007.4
20260506084350 55 296 2.0 2.0 0.05 0.03 0.03 97 1007.4
20260506083846 56 185 0.0 1.0 0.00 0.02 0.02 97 1007.1
20260506083344 56 188 0.0 0.0 0.00 0.02 0.02 97 1006.7
20260506082841 55 177 0.0 0.0 0.00 0.02 0.02 96 1006.6
20260506082338 56 137 1.0 1.0 0.00 0.02 0.02 96 1006.7
20260506081833 56 243 0.0 1.0 0.00 0.02 0.02 96 1006.4
20260506081332 56 239 3.0 3.0 0.00 0.02 0.02 96 1006.5
20260506080829 58 301 2.0 3.0 0.12 0.02 0.02 96 1006.0
20260506080325 59 241 3.0 5.0 0.12 0.02 0.02 96 1005.8
20260506073310 64 188 0.0 0.0 0.00 0.00 0.00 96 1005.2
20260506072806 64 183 1.0 2.0 0.00 0.00 0.00 96 1005.3
20260506072305 64 186 0.0 0.0 0.00 0.00 0.00 95 1005.2
20260506071801 65 187 0.0 0.0 0.00 0.00 0.00 95 1005.2
20260506071300 65 178 0.0 0.0 0.00 0.00 0.00 94 1005.1
20260506070756 65 213 0.0 0.0 0.00 0.00 0.00 93 1005.2
20260506070253 65 270 0.0 0.0 0.00 0.00 0.00 92 1005.1
20260506062230 68 159 1.0 2.0 0.00 0.00 0.00 82 1004.5
20260506061726 67 192 2.0 2.0 0.00 0.00 0.00 84 1004.3
20260506061224 67 180 3.0 3.0 0.00 0.00 0.00 84 1004.7
20260506060722 67 192 2.0 2.0 0.00 0.00 0.00 85 1004.9
20260506060219 67 160 0.0 0.0 0.00 0.00 0.00 86 1004.7
20260506051151 68 171 2.0 2.0 0.00 0.00 0.00 79 1005.4
20260506050649 68 177 2.0 2.0 0.00 0.00 0.00 80 1005.5
20260506050146 68 164 3.0 5.0 0.00 0.00 0.00 79 1005.8
20260506044637 67 189 1.0 1.0 0.00 0.02 0.02 83 1005.5
20260506044134 68 151 1.0 2.0 0.00 0.02 0.02 84 1005.5
20260506043631 68 173 1.0 2.0 0.00 0.02 0.02 81 1005.7
20260506043129 67 207 2.0 3.0 0.00 0.02 0.02 82 1005.7
20260506042627 66 163 0.0 0.0 0.00 0.02 0.02 83 1006.0
20260506042125 66 182 3.0 5.0 0.00 0.02 0.02 82 1006.1
20260506041624 65 164 1.0 2.0 0.00 0.02 0.02 85 1005.7
20260506041120 66 162 1.0 2.0 0.00 0.02 0.02 85 1005.8
20260506040618 65 180 0.0 0.0 0.00 0.02 0.02 87 1005.8
20260506040114 65 167 2.0 2.0 0.00 0.02 0.02 88 1006.2
20260506035611 65 177 0.0 0.0 0.00 0.02 0.02 87 1005.9
20260506035108 65 175 1.0 1.0 0.00 0.02 0.02 87 1005.8
20260506034605 65 170 2.0 2.0 0.00 0.02 0.02 86 1006.1
20260506034102 64 176 0.0 0.0 0.00 0.02 0.02 88 1006.1
20260506033559 64 176 0.0 0.0 0.00 0.02 0.02 89 1006.2
20260506033056 64 141 0.0 0.0 0.00 0.02 0.02 89 1006.2
20260506032553 64 163 0.0 0.0 0.00 0.02 0.02 89 1006.1
20260506032050 64 169 0.0 0.0 0.00 0.02 0.02 89 1006.2
20260506031548 64 172 0.0 0.0 0.00 0.02 0.02 89 1006.2
20260506031044 64 174 0.0 0.0 0.00 0.02 0.02 89 1006.5
20260506030543 64 175 2.0 2.0 0.00 0.02 0.02 89 1006.4
20260506030040 64 169 0.0 0.0 0.00 0.02 0.02 90 1006.4
20260506025537 63 171 1.0 1.0 0.00 0.02 0.02 91 1006.4
20260506025032 63 183 0.0 0.0 0.00 0.02 0.02 91 1006.4
20260506024530 63 185 0.0 0.0 0.00 0.02 0.02 92 1006.2
20260506024026 63 173 0.0 0.0 0.00 0.02 0.02 92 1006.0
20260506023522 62 171 0.0 0.0 0.00 0.02 0.02 92 1006.2
20260506023020 62 178 0.0 0.0 0.00 0.02 0.02 93 1006.2
20260506022517 62 183 0.0 0.0 0.00 0.02 0.02 93 1006.3
20260506022015 62 176 0.0 0.0 0.00 0.02 0.02 93 1006.3
20260506021512 62 175 0.0 0.0 0.00 0.02 0.02 93 1006.3
20260506021009 62 177 1.0 1.0 0.00 0.02 0.02 94 1006.0
20260506020507 61 177 0.0 0.0 0.00 0.02 0.02 95 1006.1
20260506020004 61 178 0.0 0.0 0.00 0.02 0.02 95 1006.3
20260506015501 61 164 0.0 0.0 0.00 0.02 0.02 95 1005.9
20260506014958 61 165 0.0 0.0 0.00 0.02 0.02 95 1006.1
20260506014455 61 164 0.0 0.0 0.00 0.02 0.02 95 1005.9
20260506013951 61 165 0.0 0.0 0.00 0.02 0.02 95 1005.9
20260506013449 61 177 0.0 0.0 0.00 0.02 0.02 95 1006.1
20260506012945 61 177 0.0 0.0 0.00 0.02 0.02 95 1006.2
20260506012442 60 177 0.0 0.0 0.00 0.02 0.02 96 1006.3
20260506011939 60 175 0.0 0.0 0.00 0.02 0.02 96 1006.4
20260506011436 60 175 0.0 0.0 0.00 0.02 0.02 96 1006.4
20260506010933 60 175 0.0 0.0 0.00 0.02 0.02 97 1006.7
20260506010432 60 171 0.0 0.0 0.00 0.02 0.02 97 1006.6
20260506005927 60 171 0.0 0.0 0.00 0.02 0.02 97 1006.4
20260506005426 60 168 0.0 0.0 0.00 0.02 0.02 97 1006.5
20260506004920 60 166 0.0 0.0 0.00 0.02 0.02 97 1006.8
20260506004419 60 179 0.0 0.0 0.00 0.02 0.02 97 1006.7
20260506003914 60 183 0.0 0.0 0.00 0.02 0.02 97 1006.9
20260506003411 60 182 0.0 0.0 0.07 0.02 0.02 97 1006.9
20260506002908 60 183 0.0 0.0 0.07 0.02 0.02 96 1006.8
20260506002404 60 162 0.0 0.0 0.00 0.01 0.01 96 1006.8
20260506001859 60 179 0.0 0.0 0.00 0.01 0.01 96 1006.8
20260506001356 61 182 0.0 0.0 0.00 0.01 0.01 96 1006.8
20260506000853 60 196 0.0 0.0 0.00 0.01 0.01 95 1006.6
20260506000354 60 305 0.0 1.0 0.00 0.01 0.01 95 1006.7
20260505235848 60 187 0.0 0.0 0.00 0.01 0.01 94 1006.6
20260505235345 60 163 0.0 0.0 0.00 0.01 0.01 94 1006.5
20260505234842 60 162 0.0 0.0 0.00 0.01 0.01 95 1006.3
20260505234340 60 163 0.0 0.0 0.00 0.01 0.01 93 1006.4
20260505233837 60 167 0.0 0.0 0.00 0.01 0.01 91 1006.4
20260505233335 61 140 0.0 0.0 0.00 0.01 0.01 89 1006.7
20260505232832 61 160 0.0 0.0 0.00 0.01 0.01 88 1006.7
20260505232330 61 159 0.0 0.0 0.05 0.01 0.01 87 1006.6
20260505231826 62 160 0.0 0.0 0.05 0.01 0.01 85 1006.6
20260505231324 64 153 0.0 0.0 0.00 0.00 0.00 82 1007.1
20260505230822 65 166 0.0 0.0 0.00 0.00 0.00 72 1007.3
20260505230318 65 169 0.0 0.0 0.00 0.00 0.00 71 1007.0
20260505225815 67 141 0.0 0.0 0.00 0.00 0.00 66 1007.1
20260505225313 68 172 0.0 0.0 0.00 0.00 0.00 61 1007.0
20260505224807 69 160 0.0 0.0 0.00 0.00 0.00 60 1007.0
20260505224306 69 176 0.0 0.0 0.00 0.00 0.00 59 1006.9
20260505223802 69 144 3.0 3.0 0.00 0.00 0.00 58 1007.0
20260505223259 70 167 0.0 0.0 0.00 0.00 0.00 56 1007.1
20260505222755 70 154 0.0 0.0 0.00 0.00 0.00 55 1007.2
20260505222251 70 165 3.0 3.0 0.00 0.00 0.00 54 1007.2
20260505221749 71 169 2.0 3.0 0.00 0.00 0.00 54 1007.1
20260505221245 71 195 1.0 2.0 0.00 0.00 0.00 52 1007.5
20260505220742 71 159 2.0 2.0 0.00 0.00 0.00 55 1006.9
20260505220239 71 136 1.0 2.0 0.00 0.00 0.00 54 1006.8
20260505215738 71 179 2.0 2.0 0.00 0.00 0.00 53 1006.8
20260505215235 71 171 3.0 3.0 0.00 0.00 0.00 55 1006.9
20260505214733 71 177 0.0 1.0 0.00 0.00 0.00 54 1007.2
20260505214229 71 152 1.0 2.0 0.00 0.00 0.00 52 1007.2
20260505213727 71 146 3.0 3.0 0.00 0.00 0.00 51 1007.4
20260505213224 71 175 0.0 0.0 0.00 0.00 0.00 55 1007.2
20260505212720 72 166 2.0 2.0 0.00 0.00 0.00 53 1007.4